Weather History for KSET - April, 2013

Change the Weather History Date:

Saturday, April 20, 2013

  Actual Average (KSTL) Record (KSTL)
Temperature  
Mean Temperature 44 °F 59 °F  
Max Temperature 55 °F 69 °F 89 °F (1987)
Min Temperature 33 °F 49 °F 28 °F (1904)
Degree Days  
Heating Degree Days 22 8  
Month to date heating degree days 210  
Since 1 July heating degree days 4396  
Cooling Degree Days 0 2  
Month to date cooling degree days 22  
Year to date cooling degree days 29  
Moisture  
Dew Point 28 °F    
Average Humidity 55    
Maximum Humidity 82    
Minimum Humidity 33    
Precipitation  
Precipitation 0.00 in 0.13 in 1.84 in (1966)
Month to date precipitation 2.41  
Year to date precipitation 10.37  
Snow  
Snow 0.00 in 0.10 in 5.50 in (1904)
Month to date snowfall 0.4  
Since 1 July snowfall 17.7  
Snow Depth -    
Sea Level Pressure  
Sea Level Pressure 30.25 in    
Wind  
Wind Speed 5 mph (NNE)    
Max Wind Speed 12 mph    
Max Gust Speed -    
Visibility 10 miles    
Events      
T = Trace of Precipitation, MM = Missing Value Source: NWS Daily Summary

Daily Weather History Graph

Daily Weather History Graph

Search for Another Location

Airport or City:

Trip Planner

Search our weather history database for the weather conditions in past years. The results will help you decide how hot, cold, wet, or windy it might be!

Date:

Astronomy

Apr. 20, 2013 Rise Set
Actual Time 6:17 AM CDT 7:43 PM CDT
Civil Twilight 5:49 AM CDT 8:11 PM CDT
Nautical Twilight 5:16 AM CDT 8:45 PM CDT
Astronomical Twilight 4:41 AM CDT 9:21 PM CDT
Moon 2:30 PM CDT (4/20) 3:04 AM CDT (4/20)
Length of Visible Light 14h 22m
Length of Day
13h 26m
Waxing Gibbous, 71% of the Moon is Illuminated
Apr 20
Waxing Gibbous
Apr 25
Full
May 2
Last Quarter
May 9
New
May 17
First Quarter

Hourly Weather History & Observations

Time (CDT) Temp. Windchill Dew Point Humidity Pressure Visibility Wind Dir Wind Speed Gust Speed Precip Events Conditions
12:54 AM 39.9 °F 36.7 °F 28.0 °F 63% 30.09 in 10.0 mi West 4.6 mph - N/A   Clear
1:54 AM 37.9 °F 34.4 °F 28.9 °F 70% 30.10 in 10.0 mi WSW 4.6 mph - N/A   Clear
2:54 AM 37.0 °F 33.3 °F 28.0 °F 70% 30.12 in 10.0 mi NW 4.6 mph - N/A   Clear
3:54 AM 36.0 °F 32.1 °F 27.0 °F 70% 30.14 in 10.0 mi North 4.6 mph - N/A   Clear
4:54 AM 34.0 °F - 28.0 °F 79% 30.16 in 10.0 mi Calm Calm - N/A   Clear
5:54 AM 33.1 °F - 28.0 °F 82% 30.19 in 10.0 mi Calm Calm - N/A   Clear
6:54 AM 34.0 °F - 28.0 °F 79% 30.22 in 10.0 mi Calm Calm - N/A   Clear
7:54 AM 39.0 °F - 28.0 °F 65% 30.25 in 10.0 mi Calm Calm - N/A   Clear
8:54 AM 42.1 °F 40.2 °F 27.0 °F 55% 30.27 in 10.0 mi Variable 3.5 mph - N/A   Clear
9:54 AM 44.1 °F 40.1 °F 27.0 °F 51% 30.28 in 10.0 mi WNW 6.9 mph - N/A   Clear
10:54 AM 45.0 °F 40.6 °F 25.0 °F 46% 30.31 in 10.0 mi West 8.1 mph - N/A   Clear
11:54 AM 46.9 °F - 25.0 °F 42% 30.30 in 10.0 mi Variable 6.9 mph - N/A   Clear
12:54 PM 48.9 °F - 26.1 °F 41% 30.29 in 10.0 mi SW 9.2 mph - N/A   Clear
1:54 PM 50.0 °F - 24.1 °F 36% 30.28 in 10.0 mi WNW 5.8 mph - N/A   Clear
2:54 PM 53.1 °F - 26.1 °F 35% 30.27 in 10.0 mi Calm Calm - N/A   Clear
3:54 PM 54.0 °F - 25.0 °F 33% 30.26 in 10.0 mi Variable 4.6 mph - N/A   Clear
4:54 PM 54.0 °F - 28.0 °F 37% 30.25 in 10.0 mi East 6.9 mph - N/A   Clear
5:54 PM 53.1 °F - 27.0 °F 37% 30.26 in 10.0 mi Calm Calm - 0.00 in   Clear
6:54 PM 52.0 °F - 30.0 °F 43% 30.26 in 10.0 mi ENE 9.2 mph - N/A   Clear
7:54 PM 48.9 °F - 30.0 °F 48% 30.27 in 10.0 mi ENE 10.4 mph - N/A   Clear
8:54 PM 46.9 °F - 30.9 °F 54% 30.30 in 10.0 mi ENE 9.2 mph - N/A   Clear
9:54 PM 46.0 °F 41.0 °F 30.9 °F 56% 30.34 in 10.0 mi ENE 10.4 mph - N/A   Scattered Clouds
10:54 PM 44.1 °F 39.0 °F 33.1 °F 65% 30.35 in 10.0 mi East 9.2 mph - N/A   Clear
11:54 PM 43.0 °F 36.8 °F 34.0 °F 71% 30.35 in 10.0 mi East 11.5 mph - N/A   Clear